| time (UTC) | temp F | wind direction | speed MPH | gust MPH | rain 1hr in | rain 24hr in | rain mn in | humidity % | barometer mb |
| 20260507083102 | 49 | 0 | 0.0 | 0.0 | 0.00 | 0.00 | 0.00 | 81 | 1016.6 |
| 20260507081101 | 49 | 0 | 0.0 | 0.0 | 0.00 | 0.00 | 0.00 | 83 | 1016.5 |
| 20260507080057 | 48 | 0 | 0.0 | 0.0 | 0.00 | 0.00 | 0.00 | 84 | 1016.5 |
| 20260507075100 | 47 | 0 | 0.0 | 0.0 | 0.00 | 0.00 | 0.00 | 85 | 1016.6 |
| 20260507074100 | 47 | 0 | 0.0 | 0.0 | 0.00 | 0.01 | 0.00 | 86 | 1016.5 |
| 20260507073101 | 47 | 0 | 0.0 | 0.0 | 0.00 | 0.01 | 0.00 | 87 | 1016.4 |
| 20260507071058 | 47 | 0 | 0.0 | 0.0 | 0.00 | 0.01 | 0.00 | 89 | 1016.3 |
| 20260507070058 | 47 | 0 | 0.0 | 0.0 | 0.00 | 0.01 | 0.00 | 89 | 1016.2 |
| 20260507065055 | 47 | 0 | 0.0 | 0.0 | 0.00 | 0.01 | 0.00 | 89 | 1016.2 |
| 20260507064056 | 47 | 0 | 0.0 | 0.0 | 0.00 | 0.01 | 0.00 | 91 | 1016.0 |
| 20260507063055 | 46 | 0 | 0.0 | 0.0 | 0.00 | 0.01 | 0.00 | 90 | 1016.0 |
| 20260507062058 | 46 | 0 | 0.0 | 0.0 | 0.00 | 0.02 | 0.00 | 91 | 1016.0 |
| 20260507061058 | 46 | 0 | 0.0 | 0.0 | 0.00 | 0.02 | 0.00 | 92 | 1015.9 |
| 20260507060056 | 46 | 0 | 0.0 | 0.0 | 0.00 | 0.02 | 0.00 | 92 | 1015.8 |
| 20260507055052 | 46 | 0 | 0.0 | 0.0 | 0.00 | 0.02 | 0.00 | 94 | 1015.7 |
| 20260507054055 | 45 | 0 | 0.0 | 0.0 | 0.00 | 0.02 | 0.00 | 94 | 1015.6 |
| 20260507053054 | 45 | 0 | 0.0 | 0.0 | 0.00 | 0.02 | 0.00 | 94 | 1015.6 |
| 20260507052057 | 45 | 0 | 0.0 | 0.0 | 0.00 | 0.02 | 0.00 | 94 | 1015.4 |
| 20260507050057 | 45 | 0 | 0.0 | 0.0 | 0.00 | 0.02 | 0.00 | 95 | 1015.2 |
| 20260507045057 | 45 | 0 | 0.0 | 0.0 | 0.00 | 0.02 | 0.00 | 96 | 1015.1 |
| 20260507044059 | 45 | 0 | 0.0 | 0.0 | 0.00 | 0.02 | 0.00 | 96 | 1014.9 |
| 20260507043058 | 45 | 0 | 0.0 | 0.0 | 0.00 | 0.02 | 0.00 | 95 | 1014.8 |
| 20260507042059 | 45 | 0 | 0.0 | 0.0 | 0.00 | 0.02 | 0.00 | 96 | 1014.7 |
| 20260507041054 | 44 | 0 | 0.0 | 0.0 | 0.00 | 0.02 | 0.00 | 96 | 1014.7 |
| 20260507040059 | 44 | 0 | 0.0 | 0.0 | 0.00 | 0.02 | 0.00 | 96 | 1014.6 |
| 20260507035057 | 44 | 0 | 0.0 | 0.0 | 0.00 | 0.02 | 0.00 | 96 | 1014.6 |
| 20260507034056 | 44 | 0 | 0.0 | 0.0 | 0.00 | 0.02 | 0.00 | 96 | 1014.6 |
| 20260507033055 | 44 | 0 | 0.0 | 0.0 | 0.00 | 0.02 | 0.00 | 96 | 1014.6 |
| 20260507032056 | 44 | 0 | 0.0 | 0.0 | 0.00 | 0.02 | 0.00 | 96 | 1014.5 |
| 20260507031056 | 44 | 0 | 0.0 | 0.0 | 0.00 | 0.02 | 0.00 | 96 | 1014.4 |
| 20260507030055 | 44 | 0 | 0.0 | 0.0 | 0.00 | 0.02 | 0.00 | 97 | 1014.2 |
| 20260507025054 | 44 | 0 | 0.0 | 0.0 | 0.00 | 0.02 | 0.00 | 96 | 1014.3 |
| 20260507024052 | 44 | 0 | 0.0 | 0.0 | 0.00 | 0.02 | 0.00 | 96 | 1014.3 |
| 20260507022057 | 44 | 0 | 0.0 | 0.0 | 0.00 | 0.02 | 0.00 | 95 | 1014.2 |
| 20260507021056 | 44 | 0 | 0.0 | 0.0 | 0.00 | 0.02 | 0.00 | 96 | 1014.2 |
| 20260507020055 | 44 | 0 | 0.0 | 0.0 | 0.00 | 0.02 | 0.00 | 96 | 1014.1 |
| 20260507015053 | 44 | 0 | 0.0 | 0.0 | 0.00 | 0.02 | 0.00 | 95 | 1014.1 |
| 20260507014055 | 44 | 0 | 0.0 | 0.0 | 0.00 | 0.02 | 0.00 | 96 | 1014.1 |
| 20260507013054 | 43 | 0 | 0.0 | 0.0 | 0.00 | 0.02 | 0.00 | 97 | 1014.1 |
| 20260507012052 | 42 | 0 | 0.0 | 0.0 | 0.00 | 0.02 | 0.00 | 98 | 1014.2 |
| 20260507011058 | 42 | 0 | 0.0 | 0.0 | 0.00 | 0.02 | 0.00 | 97 | 1014.1 |
| 20260507005055 | 42 | 0 | 0.0 | 0.0 | 0.00 | 0.02 | 0.00 | 96 | 1014.1 |
| 20260507004057 | 42 | 0 | 0.0 | 0.0 | 0.00 | 0.02 | 0.00 | 95 | 1014.0 |
| 20260507003055 | 43 | 0 | 0.0 | 0.0 | 0.00 | 0.02 | 0.00 | 94 | 1013.9 |
| 20260507002056 | 43 | 0 | 0.0 | 0.0 | 0.00 | 0.02 | 0.00 | 93 | 1013.9 |
| 20260506235107 | 44 | 0 | 0.0 | 0.0 | 0.00 | 0.02 | 0.00 | 92 | 1013.6 |
| 20260506234106 | 44 | 0 | 0.0 | 0.0 | 0.00 | 0.02 | 0.00 | 92 | 1013.6 |
| 20260506233105 | 44 | 0 | 0.0 | 0.0 | 0.00 | 0.02 | 0.00 | 92 | 1013.7 |
| 20260506232104 | 44 | 0 | 0.0 | 0.0 | 0.00 | 0.02 | 0.00 | 93 | 1013.5 |
| 20260506231104 | 45 | 0 | 0.0 | 0.0 | 0.00 | 0.02 | 0.00 | 93 | 1013.5 |
| 20260506230106 | 45 | 0 | 0.0 | 0.0 | 0.00 | 0.02 | 0.00 | 92 | 1013.5 |
| 20260506225104 | 45 | 0 | 0.0 | 0.0 | 0.00 | 0.02 | 0.00 | 92 | 1013.3 |
| 20260506224104 | 45 | 0 | 0.0 | 0.0 | 0.00 | 0.02 | 0.00 | 92 | 1013.3 |
| 20260506223103 | 45 | 0 | 0.0 | 0.0 | 0.00 | 0.02 | 0.00 | 92 | 1013.2 |
| 20260506222107 | 46 | 0 | 0.0 | 0.0 | 0.00 | 0.02 | 0.00 | 92 | 1012.9 |
| 20260506221103 | 46 | 0 | 0.0 | 0.0 | 0.00 | 0.02 | 0.00 | 91 | 1012.9 |
| 20260506220113 | 46 | 0 | 0.0 | 0.0 | 0.00 | 0.02 | 0.00 | 91 | 1012.8 |
| 20260506215112 | 46 | 0 | 0.0 | 0.0 | 0.00 | 0.02 | 0.02 | 91 | 1012.7 |
| 20260506214112 | 46 | 0 | 0.0 | 0.0 | 0.00 | 0.02 | 0.02 | 91 | 1012.7 |
| 20260506213110 | 46 | 0 | 0.0 | 0.0 | 0.00 | 0.02 | 0.02 | 91 | 1012.6 |
| 20260506212110 | 47 | 0 | 0.0 | 0.0 | 0.00 | 0.02 | 0.02 | 91 | 1012.6 |
| 20260506211110 | 47 | 0 | 0.0 | 0.0 | 0.00 | 0.02 | 0.02 | 90 | 1012.5 |
| 20260506210108 | 47 | 0 | 0.0 | 0.0 | 0.00 | 0.02 | 0.02 | 90 | 1012.4 |
| 20260506205108 | 47 | 0 | 0.0 | 0.0 | 0.00 | 0.03 | 0.02 | 89 | 1012.4 |
| 20260506203109 | 47 | 0 | 0.0 | 0.0 | 0.00 | 0.05 | 0.02 | 89 | 1012.2 |
| 20260506202111 | 47 | 0 | 0.0 | 0.0 | 0.00 | 0.06 | 0.02 | 89 | 1012.2 |
| 20260506201111 | 47 | 0 | 0.0 | 0.0 | 0.00 | 0.08 | 0.02 | 89 | 1012.1 |
| 20260506200111 | 47 | 0 | 0.0 | 0.0 | 0.00 | 0.09 | 0.02 | 89 | 1011.9 |
| 20260506195108 | 47 | 0 | 0.0 | 0.0 | 0.00 | 0.13 | 0.02 | 88 | 1011.8 |
| 20260506194110 | 47 | 0 | 0.0 | 0.0 | 0.00 | 0.16 | 0.02 | 88 | 1011.7 |
| 20260506193111 | 48 | 0 | 0.0 | 0.0 | 0.00 | 0.19 | 0.02 | 87 | 1011.5 |
| 20260506192110 | 48 | 0 | 0.0 | 0.0 | 0.00 | 0.21 | 0.02 | 86 | 1011.4 |
| 20260506191106 | 48 | 0 | 0.0 | 0.0 | 0.00 | 0.24 | 0.02 | 86 | 1011.2 |
| 20260506190110 | 48 | 0 | 0.0 | 0.0 | 0.00 | 0.24 | 0.02 | 86 | 1011.1 |
| 20260506185109 | 48 | 0 | 0.0 | 0.0 | 0.00 | 0.25 | 0.02 | 85 | 1011.0 |
| 20260506184101 | 49 | 0 | 0.0 | 0.0 | 0.00 | 0.25 | 0.02 | 85 | 1010.9 |
| 20260506183108 | 49 | 0 | 0.0 | 0.0 | 0.00 | 0.27 | 0.02 | 84 | 1010.8 |
| 20260506182110 | 49 | 0 | 0.0 | 0.0 | 0.00 | 0.28 | 0.02 | 85 | 1010.6 |
| 20260506181101 | 49 | 0 | 0.0 | 0.0 | 0.00 | 0.29 | 0.02 | 85 | 1010.4 |
| 20260506180107 | 49 | 0 | 0.0 | 0.0 | 0.00 | 0.30 | 0.02 | 85 | 1010.2 |
| 20260506175106 | 49 | 0 | 0.0 | 0.0 | 0.00 | 0.31 | 0.02 | 84 | 1010.2 |
| 20260506173102 | 49 | 0 | 0.0 | 0.0 | 0.00 | 0.31 | 0.02 | 85 | 1010.2 |
| 20260506171104 | 50 | 0 | 0.0 | 0.0 | 0.00 | 0.31 | 0.02 | 84 | 1010.0 |
| 20260506170059 | 50 | 0 | 0.0 | 0.0 | 0.00 | 0.31 | 0.02 | 83 | 1009.9 |
| 20260506164103 | 51 | 0 | 0.0 | 0.0 | 0.00 | 0.31 | 0.02 | 84 | 1009.8 |
| 20260506163100 | 51 | 0 | 0.0 | 0.0 | 0.00 | 0.31 | 0.02 | 83 | 1009.8 |
| 20260506162106 | 51 | 0 | 0.0 | 0.0 | 0.00 | 0.31 | 0.02 | 83 | 1009.8 |
| 20260506161101 | 51 | 0 | 0.0 | 0.0 | 0.00 | 0.32 | 0.02 | 83 | 1009.7 |
| 20260506160100 | 51 | 0 | 0.0 | 0.0 | 0.00 | 0.33 | 0.02 | 83 | 1009.7 |
| 20260506155102 | 51 | 0 | 0.0 | 0.0 | 0.00 | 0.33 | 0.02 | 83 | 1009.6 |
| 20260506154107 | 51 | 0 | 0.0 | 0.0 | 0.00 | 0.34 | 0.02 | 85 | 1009.6 |
| 20260506153101 | 51 | 0 | 0.0 | 0.0 | 0.00 | 0.34 | 0.02 | 86 | 1009.5 |
| 20260506151104 | 51 | 0 | 0.0 | 0.0 | 0.00 | 0.35 | 0.02 | 86 | 1009.4 |
| 20260506150100 | 52 | 0 | 0.0 | 0.0 | 0.00 | 0.35 | 0.02 | 83 | 1009.2 |
| 20260506145103 | 52 | 0 | 0.0 | 0.0 | 0.00 | 0.35 | 0.02 | 85 | 1009.2 |
| 20260506144059 | 51 | 0 | 0.0 | 0.0 | 0.00 | 0.36 | 0.02 | 87 | 1009.2 |
| 20260506143058 | 51 | 0 | 0.0 | 0.0 | 0.00 | 0.36 | 0.02 | 87 | 1009.3 |
| 20260506142058 | 51 | 0 | 0.0 | 0.0 | 0.00 | 0.36 | 0.02 | 89 | 1009.4 |
| 20260506140106 | 52 | 0 | 0.0 | 0.0 | 0.00 | 0.37 | 0.02 | 87 | 1009.3 |
| 20260506135100 | 51 | 0 | 0.0 | 0.0 | 0.00 | 0.38 | 0.02 | 88 | 1009.3 |
| 20260506134059 | 50 | 0 | 0.0 | 0.0 | 0.00 | 0.38 | 0.02 | 89 | 1009.4 |
| 20260506132059 | 50 | 0 | 0.0 | 0.0 | 0.00 | 0.39 | 0.02 | 91 | 1009.4 |
| 20260506131059 | 50 | 0 | 0.0 | 0.0 | 0.00 | 0.39 | 0.02 | 90 | 1009.3 |
| 20260506130059 | 50 | 0 | 0.0 | 0.0 | 0.00 | 0.40 | 0.02 | 91 | 1009.2 |
| 20260506124058 | 50 | 0 | 0.0 | 0.0 | 0.00 | 0.43 | 0.02 | 90 | 1009.0 |
| 20260506123102 | 50 | 0 | 0.0 | 0.0 | 0.00 | 0.45 | 0.02 | 89 | 1008.9 |
| 20260506122058 | 50 | 0 | 0.0 | 0.0 | 0.00 | 0.46 | 0.02 | 89 | 1008.8 |
| 20260506121055 | 50 | 0 | 0.0 | 0.0 | 0.00 | 0.47 | 0.02 | 90 | 1008.8 |
| 20260506120056 | 50 | 0 | 0.0 | 0.0 | 0.00 | 0.52 | 0.02 | 90 | 1008.7 |
| 20260506115057 | 50 | 0 | 0.0 | 0.0 | 0.00 | 0.57 | 0.02 | 90 | 1008.6 |
| 20260506114059 | 50 | 0 | 0.0 | 0.0 | 0.00 | 0.62 | 0.02 | 91 | 1008.6 |
| 20260506113100 | 51 | 0 | 0.0 | 0.0 | 0.00 | 0.62 | 0.02 | 91 | 1008.4 |
| 20260506111059 | 51 | 0 | 0.0 | 0.0 | 0.00 | 0.62 | 0.02 | 89 | 1008.3 |
| 20260506105056 | 51 | 0 | 0.0 | 0.0 | 0.00 | 0.62 | 0.02 | 91 | 1008.3 |
| 20260506104058 | 50 | 0 | 0.0 | 0.0 | 0.00 | 0.62 | 0.02 | 91 | 1008.2 |
| 20260506103059 | 51 | 0 | 0.0 | 0.0 | 0.00 | 0.62 | 0.02 | 91 | 1008.1 |
| 20260506102100 | 51 | 0 | 0.0 | 0.0 | 0.00 | 0.62 | 0.02 | 91 | 1008.0 |
| 20260506100057 | 51 | 0 | 0.0 | 0.0 | 0.00 | 0.62 | 0.02 | 91 | 1007.8 |
| 20260506094058 | 51 | 0 | 0.0 | 0.0 | 0.00 | 0.62 | 0.02 | 93 | 1007.6 |
| 20260506091055 | 51 | 0 | 0.0 | 0.0 | 0.00 | 0.62 | 0.02 | 95 | 1007.6 |
| 20260506090059 | 51 | 0 | 0.0 | 0.0 | 0.00 | 0.62 | 0.02 | 96 | 1007.5 |
| 20260506085058 | 51 | 0 | 0.0 | 0.0 | 0.00 | 0.62 | 0.02 | 96 | 1007.3 |